THOR ABLESTAR DEB

Satellite information

Favourite Embed

Satellite Type and Status

DEBRISIN ORBIT

Key statistics

Satellite THOR ABLESTAR DEB at a glance.

Uptime

22184

Days in orbit

Revolutions

≈ 13.6

Per day

Orbit

LEO

Low Earth Orbit

Inclination

89.8

Latest

Satellite identification and parameters

Extended collection of information and parameters for THOR ABLESTAR DEB.

Object identification

Identified? True

Debris? True

Object name: THOR ABLESTAR DEB

International designator: 1964-083G

Object number (NORAD): 1099

Object ID (CCSDS): 1099

Country: UNITED STATES OF AMERICA (US)

Current information (Y/N): Y

RCS size: MEDIUM

Orbital parameters

Period: 105.671 minutes

Inclination: 89.8281 deg

SMA: 7403.956 km

Apoapsis: 1056.271 km

Periapsis: 995.371 km

RAAN: 143.3089 deg

Eccentricy: 0.00411265

Argument of periapsis: 38.947 deg

Mean anomaly: 331.4719 deg

Mean motion: 13.62721132 rev/day

Mean motion (dot): 0.00000234 rev/day2

B* drag term: 0.00028590608 1/REarth

Two-line elements (TLE)

Creation date: Sept. 8, 2025, 3:16 a.m.

Reference frame: TEME

Reference center: EARTH

Epoch: Sept. 7, 2025, 11:15 p.m. UTC

TLE line 0: 0 THOR ABLESTAR DEB

TLE line 1: 1 01099U 64083G 25250.96930462 .00000234 00000-0 28591-3 0 9990

TLE line 2: 2 01099 89.8281 143.3089 0041126 38.9470 331.4719 13.62721132943978

Live tracking on map

Real-time ground track for satellite THOR ABLESTAR DEB.

In-orbit conjunctions

A list of the most updated potential collisions computed for object THOR ABLESTAR DEB.

Target Orbit TCA Probability of collision Miss distance Type
COSMOS 2230 LEO 2024-08-21 06:07:58 0.0001270134 350.0 (m) PAYLOAD

Associated space launch

The Transit-O series of satellites that closely followed the design of Transit 5C-1 were also called “Oscars” (Oscar is the phonetic alphabet for “O”, i. e., operational). They were also called NNS (Navy Navigation Satellite) or shortened NavSat.

THOR ABLESTAR DEB was lifted into orbit during the mission ‘Thor DM-21 Ablestar | Transit-O 2 & 5E-5’, on board a Thor DM-21 Ablestar space rocket.

The launch took place on Dec. 13, 1964, 12:08 a.m. from Space Launch Complex 2W.

For more information about the launch, click the button.

Launch to space Thor DM-21 Ablestar | Transit-O 2 & 5E-5
Thor DM-21 Ablestar | Transit-O 2 & 5E-5

Agency: N/A

Status: Launch Successful

Launch date: Dec. 13, 1964, 12:08 a.m. UTC

Rocket: Thor DM-21 Ablestar

Launch pad: Space Launch Complex 2W

Location: Vandenberg SFB, CA, USA

...

Latest news about this satellite

There are no fresh news available about this satellite. Check back as we update our databases every day.


Newsletter sign-up

Weekly statistics, charts and insights to help you stay on top of the space industry.